TimeCST,TemperatureF,Dew PointF,Humidity,Sea Level PressureIn,VisibilityMPH,Wind Direction,Wind SpeedMPH,Gust SpeedMPH,PrecipitationIn,Events,Conditions,WindDirDegrees,DateUTC
12:53 AM,43.0,30.0,60,30.20,10.0,SSW,5.8,-,N/A,,Clear,210,2012-11-30 06:53:00
1:53 AM,42.1,30.0,62,30.20,10.0,South,5.8,-,N/A,,Clear,180,2012-11-30 07:53:00
2:53 AM,36.0,28.9,76,30.22,10.0,Calm,Calm,-,N/A,,Clear,0,2012-11-30 08:53:00
3:53 AM,33.1,28.9,85,30.22,10.0,Calm,Calm,-,N/A,,Clear,0,2012-11-30 09:53:00
4:53 AM,32.0,28.0,85,30.21,10.0,Calm,Calm,-,N/A,,Clear,0,2012-11-30 10:53:00
6:53 AM,32.0,28.0,85,30.22,10.0,Calm,Calm,-,N/A,,Clear,0,2012-11-30 12:53:00
7:53 AM,35.1,30.9,85,30.22,10.0,Calm,Calm,-,N/A,,Clear,0,2012-11-30 13:53:00
8:53 AM,46.0,36.0,68,30.22,10.0,SSW,9.2,-,N/A,,Clear,200,2012-11-30 14:53:00
9:53 AM,50.0,37.0,61,30.23,10.0,SSW,6.9,-,N/A,,Clear,210,2012-11-30 15:53:00
10:53 AM,55.0,39.0,55,30.21,10.0,SSW,12.7,-,N/A,,Clear,200,2012-11-30 16:53:00
11:53 AM,55.9,39.0,53,30.18,10.0,SSW,9.2,-,N/A,,Overcast,210,2012-11-30 17:53:00
12:53 PM,57.9,41.0,53,30.15,10.0,SSW,12.7,-,N/A,,Overcast,200,2012-11-30 18:53:00
1:53 PM,57.9,42.1,56,30.13,10.0,SSW,10.4,-,N/A,,Overcast,210,2012-11-30 19:53:00
2:53 PM,60.1,44.1,55,30.14,10.0,SSW,10.4,-,N/A,,Clear,210,2012-11-30 20:53:00
3:53 PM,57.9,45.0,62,30.14,10.0,SSW,4.6,-,N/A,,Clear,210,2012-11-30 21:53:00
4:53 PM,54.0,45.0,72,30.14,10.0,SSW,5.8,-,N/A,,Partly Cloudy,200,2012-11-30 22:53:00
5:53 PM,52.0,45.0,77,30.15,10.0,SSW,5.8,-,N/A,,Partly Cloudy,200,2012-11-30 23:53:00
6:53 PM,52.0,45.0,77,30.16,10.0,Calm,Calm,-,N/A,,Partly Cloudy,0,2012-12-01 00:53:00
7:34 PM,50.0,44.6,82,30.15,10.0,Calm,Calm,-,N/A,,Mostly Cloudy,0,2012-12-01 01:34:00
7:53 PM,48.0,44.1,86,30.17,10.0,Calm,Calm,-,N/A,,Overcast,0,2012-12-01 01:53:00
8:51 PM,48.2,44.6,87,30.15,9.0,Calm,Calm,-,N/A,,Scattered Clouds,0,2012-12-01 02:51:00
8:53 PM,48.0,44.1,86,30.16,8.0,Calm,Calm,-,N/A,,Partly Cloudy,0,2012-12-01 02:53:00
9:53 PM,46.0,43.0,89,30.16,7.0,Calm,Calm,-,N/A,,Mostly Cloudy,0,2012-12-01 03:53:00
10:06 PM,46.4,44.6,93,30.16,7.0,Calm,Calm,-,N/A,,Overcast,0,2012-12-01 04:06:00
10:38 PM,48.2,44.6,87,30.17,8.0,Calm,Calm,-,N/A,,Overcast,0,2012-12-01 04:38:00
10:53 PM,48.9,45.0,86,30.17,8.0,SE,6.9,-,N/A,,Overcast,140,2012-12-01 04:53:00
11:53 PM,55.0,48.0,77,30.16,9.0,SSW,4.6,-,N/A,,Overcast,200,2012-12-01 05:53:00